Weather History for KSNY - April, 2014

Change the Weather History Date:

Saturday, April 5, 2014

  Actual Average Record
Temperature  
Mean Temperature 45 °F 44 °F  
Max Temperature 63 °F 58 °F 79 °F (2013)
Min Temperature 27 °F 30 °F 10 °F (1950)
Degree Days  
Heating Degree Days 20 21  
Month to date heating degree days 124 108  
Since 1 July heating degree days 5926 5493  
Cooling Degree Days 0 0  
Month to date cooling degree days 0 0  
Year to date cooling degree days 0 0  
Moisture  
Dew Point 25 °F    
Average Humidity 52    
Maximum Humidity 85    
Minimum Humidity 19    
Precipitation  
Precipitation 0.00 in 0.04 in 0.60 in (1951)
Month to date precipitation 0.18 0.23  
Year to date precipitation 1.27 1.85  
Sea Level Pressure  
Sea Level Pressure 29.84 in    
Wind  
Wind Speed 7 mph (WNW)    
Max Wind Speed 21 mph    
Max Gust Speed 25 mph    
Visibility 10 miles    
Events      
T = Trace of Precipitation, MM = Missing Value Source: NWS Daily Summary

Daily Weather History Graph

Daily Weather History Graph

Search for Another Location

Airport or City:

Trip Planner

Search our weather history database for the weather conditions in past years. The results will help you decide how hot, cold, wet, or windy it might be!

Date:

Astronomy

Apr. 05, 2014 Rise Set
Actual Time 6:28 AM MDT 7:21 PM MDT
Civil Twilight 6:00 AM MDT 7:49 PM MDT
Nautical Twilight 5:27 AM MDT 8:22 PM MDT
Astronomical Twilight 4:53 AM MDT 8:57 PM MDT
Moon 10:36 AM MDT (4/5) 12:34 AM MDT (4/5)
Length of Visible Light 13h 48m
Length of Day
12h 52m
Waxing Crescent, 35% of the Moon is Illuminated
Apr 5
Waxing Crescent
Apr 7
First Quarter
Apr 15
Full
Apr 22
Last Quarter
Apr 29
New

Hourly Weather History & Observations

Time (MDT) Temp. Windchill Dew Point Humidity Pressure Visibility Wind Dir Wind Speed Gust Speed Precip Events Conditions
12:53 AM 37.0 °F 29.3 °F 25.0 °F 62% 29.90 in 10.0 mi SSW 11.5 mph - N/A   Clear
1:53 AM 37.9 °F 29.6 °F 26.1 °F 62% 29.89 in 10.0 mi South 13.8 mph - N/A   Clear
2:53 AM 39.0 °F 32.3 °F 27.0 °F 62% 29.86 in 10.0 mi South 10.4 mph - N/A   Clear
3:53 AM 37.0 °F 31.6 °F 27.0 °F 67% 29.86 in 10.0 mi South 6.9 mph - N/A   Clear
4:53 AM 35.1 °F 28.6 °F 27.0 °F 72% 29.86 in 10.0 mi SW 8.1 mph - N/A   Mostly Cloudy
5:53 AM 30.9 °F 26.2 °F 25.0 °F 79% 29.86 in 10.0 mi WSW 4.6 mph - N/A   Clear
6:53 AM 28.9 °F 20.4 °F 25.0 °F 85% 29.90 in 10.0 mi WSW 9.2 mph - N/A   Clear
7:53 AM 37.9 °F 35.5 °F 30.9 °F 76% 29.91 in 10.0 mi West 3.5 mph - N/A   Clear
8:53 AM 44.1 °F 40.1 °F 27.0 °F 51% 29.89 in 10.0 mi NW 6.9 mph - N/A   Clear
9:53 AM 50.0 °F - 28.0 °F 43% 29.88 in 10.0 mi NW 6.9 mph - N/A   Clear
10:53 AM 57.9 °F - 27.0 °F 31% 29.84 in 10.0 mi North 8.1 mph - N/A   Clear
11:53 AM 57.9 °F - 19.9 °F 23% 29.83 in 10.0 mi NW 8.1 mph - N/A   Clear
12:53 PM 61.0 °F - 21.0 °F 21% 29.81 in 10.0 mi Variable 4.6 mph - N/A   Clear
1:53 PM 61.0 °F - 19.9 °F 21% 29.79 in 10.0 mi Calm Calm - N/A   Mostly Cloudy
2:53 PM 61.0 °F - 19.0 °F 20% 29.78 in 10.0 mi Variable 3.5 mph - N/A   Scattered Clouds
3:53 PM 62.1 °F - 19.9 °F 20% 29.77 in 10.0 mi North 10.4 mph - N/A   Overcast
4:53 PM 62.1 °F - 23.0 °F 22% 29.78 in 10.0 mi North 12.7 mph 19.6 mph N/A   Clear
5:53 PM 57.0 °F - 23.0 °F 27% 29.82 in 10.0 mi NW 4.6 mph - N/A   Clear
6:53 PM 54.0 °F - 26.1 °F 34% 29.86 in 10.0 mi NNW 12.7 mph - N/A   Overcast
7:53 PM 51.1 °F - 26.1 °F 38% 29.83 in 10.0 mi NNW 12.7 mph - N/A   Scattered Clouds
8:53 PM 48.0 °F - 27.0 °F 44% 29.85 in 10.0 mi Calm Calm - N/A   Overcast
9:53 PM 46.0 °F - 30.9 °F 56% 29.84 in 10.0 mi Calm Calm - N/A   Overcast
10:53 PM 46.0 °F 41.9 °F 26.1 °F 46% 29.82 in 10.0 mi NNE 8.1 mph - N/A   Clear
11:53 PM 39.9 °F - 26.1 °F 58% 29.84 in 10.0 mi Calm Calm - N/A   Mostly Cloudy